STARLINK-30978, 58490

Orbit data source: Space-Track

STARLINK-30978, 58490 is a payload satellite owned by SpaceX/Seattle (US) in LEO that was launched on Sun, 03 Dec 2023 UTC via an FALCON 9 launch vehicle from the Air Force Eastern Test Range (AFETR). Payload-class satellites include a variety of spacecraft equipped with specific instruments for various scientific and technological missions. These include communications satellites like Starlink; space stations such as the ISS; scientific satellites like the Hubble; Earth observation satellites from companies like Planet Labs, Umbra, and HawkEye 360; GPS; miniature CubeSats for education and research; and military/defense satellites.

Loading next visibility...
Identifier
58490, 2023-186T
Orbit
LEO
Country
Flag of USUS
Related business
Manufacturer
SpaceX/Seattle
Mission
Operational Commercial Communications
Bus & Motor
STARLINK V2M, Unknown motor
Mass
730 kg wet, ~700 kg dry
Launch date (UTC)
2023-12-03 (3 years ago)
Launch vehicle
FALCON 9
Launch site
Air Force Eastern Test Range (AFETR)
Object type
Payload
Rocket body
Debris
Shape & HBR
Box + 2 Pan, 17.7 m
Radar Cross Section
33.884 m², Large (>1 m²)

Expand to show TLE details & history
Last TLE update: 2 days ago

TLE from 2 days ago
0 STARLINK-30978
1 58490U 23186T   26171.38918940 -.00000067  00000-0  70701-5 0  9999
2 58490  42.9987 203.5781 0001233 269.9742  90.0968 15.27574787141596
Epoch: 2026-06-20T09:20Z
TLE epoch observation values (Epoch: 2026-06-20T09:20:25.964Z)
Latitude
-0.00003°
Longitude
154.86537°
Altitude
482.842 km
Speed
7.626 km/s
True Right ascension
13h 34m 18s
True Declination
0° 00' 00"
Sunlit
Object was in full shadow at epoch
Visualization orbit readout
Latitude
Unknown
Longitude
Unknown
Altitude
Unknown
Speed
Unknown
Apparent Right ascension
Unknown
Apparent Declination
Unknown
Sunlit
N/A
Visualization observer readout
Local Sidereal Time
21:25:45
Azimuth
Unknown
Elevation
Unknown
Doppler factor
Unknown
Orbital elements
Apogee altitude
485.856 km
Perigee altitude
484.164 km
Semi-major axis
6,863.147 km
Eccentricity
0.00012
Inclination
42.9987°
RAAN
203.5781°
Arg. of periapsis
269.9742°
True anomaly
90.11093°
Mean anomaly
90.0968°
Eccentric anomaly
90.10386°
Mean motion
3.81732 °/min
Orbital period
94.31 mins
BSTAR
0.0000070701
Loading maneuver chart data...
Computing Atmospheric mass density...
Loading historical data...
Loading historical data...
Loading historical data...
Loading historical data...
Loading historical data...
Loading historical data...
Loading historical data...

Documentation

Showing up to 5 results
|